AirNav   Air Wisconsin pilot careers
 
 641 users online  

FL85 Baptist Hospital Heliport
Pensacola, Florida, USA

GOING TO PENSACOLA?


FAA INFORMATION EFFECTIVE 07 DECEMBER 2017

Location

FAA Identifier: FL85
Lat/Long: 30-25-45.7110N / 087-13-51.8950W
30-25.761850N / 087-13.864917W
30.4293642 / -87.2310819
(estimated)
Elevation: 115 ft. / 35 m (estimated)
Variation: 01E (1985)
Time zone: UTC -6 (UTC -5 during Daylight Saving Time)
Zip code: 32501

Heliport Operations

Heliport use: Private use. Permission required prior to landing
Activation date: 01/1974
Control tower: no
ARTCC: JACKSONVILLE CENTER
FSS: GAINESVILLE FLIGHT SERVICE STATION
Attendance: CONTINUOUS
Wind indicator: yes
Segmented circle: no
Beacon: white-green-yellow (heliport)
24 HRS

Heliport Communications

WX ASOS at PNS (4 nm NE): PHONE 850-436-4799
  • 122.825 USED INFREQUENTLY FOR COMMUNICATIONS.

Nearby radio navigation aids

VOR radial/distance  VOR name  Freq  Var
NUNr114/(6.0)SAUFLEY VOR108.8001E
CEWr227/37.1CRESTVIEW VORTAC115.9003E

 
NDB name  Hdg/Dist  Freq  Var  ID
PICKENS262/2.832602WPKZ .--. -.- --..

Heliport Services

Airframe service: NONE
Powerplant service: NONE

Runway Information

Helipad H1

Dimensions: 52 x 52 ft. / 16 x 16 m
Surface: concrete, in fair condition
Runway edge lights: PERIMETER LGTS.
Latitude: 30-25.761850N
Longitude: 087-13.864933W
Elevation: 115.0 ft.
Traffic pattern: rightleft
Markings: none, in fair condition

Heliport Ownership and Management from official FAA records

Ownership: Privately-owned
Owner: BAPTIST HOSPITAL
1000 W MORENO ST
PENSACOLA, FL 32501
Phone (850) 469-2304
Manager: DAVID KOVACH
1000 W MORENO ST
PENSACOLA, FL 32501
Phone (850) 469-2304

Heliport Operational Statistics

Aircraft based on the field: 2
Single engine airplanes: 1
Helicopters: 1
    

Additional Remarks

A52-H1 PLINES EAST OF FACILITY.

Instrument Procedures

There are no published instrument procedures at FL85.

Some nearby airports with instrument procedures:

KPNS - Pensacola International Airport (4 nm NE)
KNPA - Pensacola Naval Air Station/Forrest Sherman Field (6 nm SW)
2R4 - Peter Prince Field Airport (18 nm NE)
KNDZ - Whiting Field Naval Air Station South (20 nm NE)
KNSE - Whiting Field Naval Air Station North (21 nm NE)
 
Loc | Ops | Rwys | IFR | FBO | Links
Com | Nav | Svcs | Stats | Notes

Continental Motors
AirBoss

 
Area around FL85 (Baptist Hospital Heliport)
 
Road maps at: MapQuest Bing Google
 
Aerial photo
No photo
 
Sectional chart

 
Airport distance calculator
Flying to Baptist Hospital Heliport? Find the distance to fly.

From to FL85

Sunrise and sunset
Times for 11-Dec-2017
 Local
(UTC-6)
 Zulu
(UTC)
Morning civil twilight06:1012:10
Sunrise06:3712:37
Sunset16:4822:48
Evening civil twilight17:1423:14

Current date and time
Zulu (UTC)  11-Dec-2017 12:26:15
Local (UTC-6)  11-Dec-2017 06:26:15
 
METAR
KPNS 
4nm NE 
111153Z 00000KT 7SM CLR 03/02 A3029 RMK AO2 SLP260 T00330017 10067 20033 55003
KNPA 
7nm SW 
111156Z 00000KT 10SM CLR 00/M01 A3030 RMK AO2 SLP261 T00001006 10039 21011 55002 $
2R4 
18nm NE 
SuperAWOS
111055Z AUTO 00000KT 00/M01 A3027
KNDZ 
20nm NE 
111156Z AUTO 00000KT 7SM CLR 00/M02 A3029 RMK AO2 SLP246 T00001017 10039 21006 55003 $
TAF
KPNS 
4nm NE 
111120Z 1112/1212 00000KT P6SM SKC FM111800 22008KT P6SM SKC
KNPA 
7nm SW 
1107/1207 VRB05KT 9999 SKC QNH3025INS BECMG 1116/1118 24009KT 9999 SKC QNH3016INS FM112100 27010G15KT 9999 FEW250 QNH3010INS FM120200 27015KT 9999 FEW250 QNH3008INS AUTOMATED SENSOR METWATCH 1107 TIL 1110 T03/1110Z T17/1121Z FN00191
NOTAMs
Click for the latest NOTAMs
NOTAMs are issued by the DoD/FAA and will open in a separate window not controlled by AirNav.

 

 
 

Would you like to see your business listed on this page?

 If your business provides an interesting product or service to pilots, flight crews, aircraft, or users of the Baptist Hospital Heliport, you should consider listing it here.  To start the listing process, click on the button below
 
Add a business
 

Other Pages about Baptist Hospital Heliport

Update a link
 
Copyright © AirNav, LLC. All rights reserved. Privacy Policy  Contact